Probability
0 0 0 0 0 0 0 0 0 0 0 0 0 0 0 0 0 0 0 0 0 0 0 0 0 0 0 0 0 0 0 0 0 0 0 0 0 0 0 0 0 0 0
0 0 0 0 0 0 0 0 0 0 0 0 0 0 0 0 0 0 0 0 0 0 0 0 0 0 0 0 0 0 0 0 0 0 0 0 0 0 0 0 0 0 0
0 0 0 0 0 0 0 0 0 0 0 0 0 0 0 0 0 0 0 0 0 0 0 0 0 0 0 0 0 0 0 0 0 0 0 0 0 0 0 0 0 0 0
0 0 0 0 0 0 0 0 0 0 0 0 0 0 0 0 0 0 0 0 0 0 0 0 0 0 0 0 0 0 0 0 0 0 0 0 0 0 0 0 0 0 0
0 0 0 0 0 0 0 0 0 0 0 0 0 0 0 0 0 0 0 0 0 0 0 0 0 0 0 0 0 0 0 0 0 0 0 0 0 0 0 0 0 0 0
0 0 0 0 0 0 0 0 0 0 0 0 0 0 0 0 0 0 0 0 0 0 0 0 0 0 0 0 0 0 0 0 0 0 0 0 0 0 0 0 0 0 0
0 0 0 0 0 0 0 0 0 0 0 0 0 0 0 0 0 0 0 0 0 0 0 0 0 0 0 0 0 0 0 0 0 0 0 0 0 0 0 0 0 0 0
0 0 0 0 0 0 0 0 0 0 0 0 0 0 0 0 0 0 0 0 0 0 0 0 0 0 0 0 0 0 0 0 0 0 0 0 0 0 0 0 0 0 0
0 0 0 0 0 0 0 0 0 0 0 0 0 0 0 0 0 0 0 0 0 0 0 0 0 0 0 0 0 0 0 0 0 0 0 0 0 0 0 0 0 0 0
0 0 0 0 0 0 0 0 0 0 0 0 0 0 0 0 0 0 0 0 0 0 0 0 0 0 0 0 0 0 0 0 0 0 0 0 0 0 0 0 0 0 0
0 0 0 0 0 0 0 0 0 0 0 0 0 0 0 0 0 0 0 0 0 0 0 0 0 0 0 0 0 0 0 0 0 0 0 0 0 0 0 0 0 0 0
0 0 0 0 0 0 0 0 0 0 0 0 0 0 0 0 0 0 0 0 0 0 0 0 0 0 0 0 0 0 0 0 0 0 0 0 0 0 0 0 0 0 0
0 0 0 0 0 0 0 0 0 0 0 0 0 0 0 0 0 0 0 0 0 0 0 0 0 0 0 0 0 0 0 0 0 0 0 0 0 0 0 0 0 0 0
0 0 0 0 0 0 0 0 0 0 0 0 0 0 0 0 0 0 0 0 0 0 0 0 0 0 0 0 0 0 0 0 0 0 0 0 0 0 0 0 0 0 0
0 0 0 0 0 0 0 0 0 0 0 0 0 0 0 0 0 0 0 0 0 0 0 0 0 0 0 0 0 0 0 0 0 0 0 0 0 0 0 0 0 0 0
0 0 0 0 0 0 0 0 0 0 0 0 0 0 0 0 0 0 0 0 0 0 0 0 0 0 0 0 0 0 0 0 0 0 0 0 0 0 0 0 0 0 0
0 0 0 0 0 0 0 0 0 0 0 0 0 0 0 0 0 0 0 0 0 0 0 0 0 0 0 0 0 0 0 0 0 0 0 0 0 0 0 0 0 0 0
0 0 0 0 0 0 0 0 0 0 0 0 0 0 0 0 0 0 0 0 0 0 0 0 0 0 0 0 0 0 0 0 0 0 0 0 0 0 0 0 0 0 0
0 0 0 0 0 0 0 0 0 0 0 0 0 0 0 0 0 0 0 0 0 0 0 0 0 0 0 0 0 0 0 0 0 0 0 0 0 0 0 0 0 0 0
0 0 0 0 0 0 0 0 0 0 0 0 0 0 0 0 0 0 0 0 0 0 0 0 0 0 0 0 0 0 0 0 0 0 0 0 0 0 0 0 0 0 0
0 0 0 0 0 0 0 0 0 0 0 0 0 0 0 0 0 0 0 0 0 0 0 0 0 0 0 0 0 0 0 0 0 0 0 0 0 0 0 0 0 0 0
0 0 0 0 0 0 0 0 0 0 0 0 0 0 0 0 0 0 0 0 0 0 0 0 0 0 0 0 0 0 0 0 0 0 0 0 0 0 0 0 0 0 0
0 0 0 0 0 0 0 0 0 0 0 0 0 0 0 0 0 0 0 0 0 0 0 0 0 0 0 0 0 0 0 0 0 0 0 0 0 0 0 0 0 0 0
0 0 0 0 0 0 0 0 0 0 0 0 0 0 0 0 0 0 0 0 0 0 0 0 0 0 0 0 0 0 0 0 0 0 0 0 0 0 0 0 0 0 0
0 0 0 0 0 0 0 0 0 0 0 0 0 0 0 0 0 0 0 0 0 0 0 0 0 0 0 0 0 0 0 0 0 0 0 0 0 0 0 0 0 0 0
0 0 0 0 0 0 0 0 0 0 0 0 0 0 0 0 0 0 0 0 0 0 0 0 0 0 0 0 0 0 0 0 0 0 0 0 0 0 0 0 0 0 0
Wind_Speed
5 5 4 3 3 3 3 3 3 4 4 3 3 3 4 4 4 3 3 9 11 11 10 10 10 9 9 10 10 10 11 11 11 11 11 12 13 14 13 13 13 13 14
6 6 5 4 3 3 3 3 3 3 3 2 3 3 3 3 3 4 3 6 11 12 12 11 11 11 10 9 9 10 12 15 16 15 16 16 16 16 14 14 14 15 14
8 7 6 5 4 3 3 3 3 3 2 2 2 2 3 3 4 4 5 4 5 11 14 15 14 13 12 11 11 12 13 14 14 16 17 17 17 19 19 17 16 17 17
9 8 6 5 5 4 3 4 3 3 2 2 2 2 3 3 5 5 5 5 5 5 10 18 16 15 14 14 14 13 13 14 16 17 17 16 17 18 19 19 17 17 18
10 8 7 5 6 4 3 3 2 2 2 1 2 3 3 3 4 4 6 6 6 6 5 11 15 15 15 14 14 13 13 15 16 16 17 18 18 18 17 17 17 18 19
11 9 7 7 7 5 4 3 3 2 2 1 2 4 3 3 3 4 5 4 5 6 6 6 6 8 14 15 14 14 14 14 14 15 17 17 17 17 17 18 18 18 18
11 10 8 8 7 6 6 6 4 3 1 1 3 3 3 3 4 4 3 4 5 5 6 6 5 4 6 14 15 14 14 14 15 16 16 17 17 18 18 19 19 18 18
12 11 11 10 9 7 7 7 5 4 2 1 3 3 2 2 2 2 2 3 4 4 6 6 5 6 5 4 10 15 16 17 18 19 19 20 20 20 20 19 19 19 19
14 12 13 11 11 10 9 8 7 7 5 2 1 4 5 4 1 1 1 2 3 3 3 4 4 5 5 4 3 9 16 18 19 19 20 20 21 21 21 22 21 22 21
15 14 13 12 11 8 8 7 6 4 6 4 2 2 2 4 4 1 1 1 3 2 3 3 3 3 3 3 5 12 17 17 18 19 19 20 21 22 22 22 22 23 23
10 12 12 12 11 8 9 8 7 6 4 6 5 4 3 2 2 3 2 2 2 2 2 4 2 2 3 4 4 10 15 17 18 18 19 20 21 22 22 22 22 23 23
7 11 12 12 12 9 10 9 8 8 5 5 4 4 5 5 4 4 3 2 1 2 3 2 1 2 3 5 8 13 13 16 17 17 18 19 20 20 20 21 21 22 23
9 14 12 12 11 10 10 9 8 8 7 6 5 4 3 4 4 4 4 3 1 1 2 1 1 2 4 4 4 12 11 14 15 16 17 18 19 19 19 20 20 21 21
12 13 13 11 11 11 11 9 8 7 6 6 6 5 4 3 4 4 5 5 2 1 2 3 1 2 2 2 6 10 5 13 15 16 16 17 18 19 19 20 20 21 21
9 14 15 14 13 14 13 12 9 9 8 7 6 6 4 3 3 4 4 4 5 3 3 3 3 3 2 1 7 3 4 12 16 16 17 18 18 19 20 21 21 22 23
10 13 15 15 14 13 13 13 10 10 11 9 7 9 7 4 5 4 5 4 3 4 3 2 1 1 2 4 10 7 8 17 15 17 18 19 19 20 21 22 23 24 25
12 14 15 15 16 16 15 14 13 14 13 11 9 11 9 7 6 5 5 5 4 4 4 2 3 2 4 5 9 9 9 9 9 17 20 21 21 22 23 23 24 25 26
15 15 16 16 16 16 16 17 17 16 16 16 14 12 11 9 8 7 6 7 6 6 5 5 3 2 4 5 8 9 9 8 7 15 19 21 22 23 23 25 26 26 27
15 17 18 19 19 18 18 18 18 18 17 17 16 16 14 13 12 8 9 7 6 6 5 5 4 4 5 6 8 8 8 6 6 10 17 18 19 21 23 25 27 28 28
14 16 19 19 19 19 20 19 18 18 17 16 16 15 15 15 14 13 10 9 7 6 6 5 4 5 6 7 6 5 6 3 7 9 11 11 15 19 22 25 27 28 28
16 14 15 15 17 17 18 20 20 18 18 16 15 14 14 16 17 14 10 11 10 7 6 5 5 5 4 3 4 5 8 6 6 5 4 6 9 9 11 17 22 25 28
13 14 16 16 17 15 24 31 23 18 18 18 17 15 14 15 19 22 19 18 15 11 8 6 5 4 4 4 5 7 9 10 6 2 9 12 10 11 10 8 19 27 29
14 16 16 16 18 21 30 33 32 19 18 18 18 17 13 13 15 15 18 21 19 19 16 10 7 5 4 4 6 8 8 10 11 11 12 14 8 12 11 12 24 28 30
12 14 15 17 16 19 30 32 33 19 16 17 17 18 18 18 17 17 14 13 11 10 10 6 4 4 5 6 6 7 8 8 10 9 9 10 10 12 12 9 22 29 30
10 12 11 14 15 17 29 31 31 12 12 15 15 17 17 17 24 25 16 12 11 8 12 13 13 10 10 10 7 3 3 5 7 6 5 6 7 13 13 12 14 25 28
9 8 9 10 12 12 24 31 31 11 12 12 12 14 18 20 25 27 16 13 11 10 8 6 5 5 4 5 9 5 3 3 4 6 4 4 8 11 12 6 7 10 14
Wind_Direction
160 150 146 150 154 148 144 139 129 117 103 84 62 53 42 29 22 20 8 23 30 29 26 29 35 32 31 31 31 32 32 32 30 27 23 21 17 8 1 1 2 356 352
158 154 154 161 165 154 144 140 130 116 101 89 63 49 44 26 21 30 28 26 34 38 32 31 33 33 34 31 29 34 36 37 33 31 27 23 19 11 6 9 12 8 359
164 160 159 161 157 142 139 127 117 112 112 108 79 51 43 26 30 38 39 37 33 41 44 44 39 34 31 30 29 30 33 28 29 29 22 19 19 14 12 11 11 6 1
166 160 159 158 148 147 154 146 141 120 93 78 60 47 43 37 37 41 47 47 47 47 43 45 41 39 34 26 22 23 22 28 29 21 14 16 19 10 6 4 5 5 1
169 162 158 152 149 152 159 156 131 130 111 72 55 57 48 57 54 55 60 55 51 52 41 32 33 33 31 26 18 16 20 22 17 15 14 16 12 4 1 1 4 6 1
170 159 156 155 153 154 163 158 128 109 121 133 91 70 54 61 62 66 73 66 52 49 36 29 26 27 32 27 20 20 18 16 17 17 14 11 7 4 3 2 2 359 353
168 163 161 157 163 170 169 154 133 134 120 143 109 78 53 54 56 51 68 69 55 39 32 28 22 22 15 20 22 27 26 24 22 18 13 10 7 3 360 355 352 348 346
169 170 167 171 172 165 165 170 154 149 142 100 131 115 86 54 29 23 56 71 60 38 33 23 20 21 18 17 18 30 32 28 22 15 9 2 357 353 350 348 347 344 343
175 174 175 173 176 175 179 179 171 159 147 119 114 143 149 191 245 335 17 63 51 47 28 6 19 19 22 25 5 32 36 26 16 8 360 354 350 347 345 343 340 337 334
177 174 175 175 177 177 177 177 174 172 143 146 128 75 111 142 156 200 295 356 24 40 13 354 355 6 29 46 43 38 28 19 9 0 354 350 345 341 338 336 333 330 327
178 176 174 174 176 176 174 171 171 174 164 155 155 146 114 71 110 154 218 327 351 317 313 322 327 19 47 61 55 32 20 8 359 354 349 344 339 334 331 328 325 323 321
180 183 178 180 179 176 176 177 177 177 177 162 164 159 154 155 170 163 170 199 279 296 305 321 358 60 76 65 39 28 14 357 350 346 342 338 335 332 329 325 322 319 316
187 191 186 184 182 179 174 168 174 180 178 173 172 175 162 153 145 141 140 153 189 285 297 293 42 94 80 62 26 22 3 344 339 337 336 334 331 330 328 324 320 317 314
190 179 184 183 180 175 173 169 173 175 170 171 174 165 156 153 142 137 144 140 147 258 247 224 147 99 87 73 5 7 346 333 329 331 331 329 328 326 326 323 320 316 313
179 175 180 181 180 178 175 171 176 174 170 171 172 166 158 155 145 135 136 144 152 186 234 207 182 146 129 92 355 351 326 320 327 328 327 325 324 324 324 323 320 317 315
179 177 182 183 181 180 177 176 173 172 170 171 169 168 166 158 156 154 156 152 145 161 222 266 259 87 33 6 337 332 319 322 322 321 321 320 320 321 323 323 320 318 317
180 183 185 185 184 185 182 181 180 175 175 172 173 174 173 159 160 158 155 160 168 165 204 256 304 359 4 336 317 311 307 306 306 314 315 316 318 321 322 320 318 316 315
185 185 184 187 190 190 187 186 182 180 179 177 177 174 173 165 164 167 170 175 177 176 180 201 243 249 246 275 281 282 284 280 284 301 308 311 315 315 315 314 313 312 311
192 186 186 190 191 191 190 191 186 185 185 182 178 178 175 171 176 176 176 175 174 179 178 187 215 232 246 250 260 263 267 268 283 297 302 302 305 307 307 306 306 306 305
202 199 194 194 191 190 191 191 188 187 185 183 181 178 175 179 180 175 176 174 170 172 179 197 217 230 239 245 253 275 305 294 307 297 292 303 308 307 302 300 299 298 295
203 201 201 199 194 191 192 190 189 186 183 179 179 178 178 180 181 178 176 174 172 174 176 192 215 226 242 290 313 316 319 316 294 276 300 308 303 296 294 294 295 291 288
200 195 200 199 198 198 198 195 188 184 181 179 178 176 176 178 185 185 188 184 183 178 178 184 210 230 279 307 319 320 320 327 325 319 319 310 305 299 296 288 293 293 291
202 201 200 199 203 204 199 198 193 183 182 181 177 174 173 176 179 180 189 190 196 198 191 191 213 234 264 290 305 308 308 307 299 311 314 301 299 295 294 293 297 294 292
209 207 203 203 206 208 202 198 194 185 184 183 179 175 172 173 182 179 185 193 196 204 214 225 231 238 244 253 265 290 303 302 294 291 295 289 297 292 295 288 293 291 291
217 215 207 203 207 209 204 197 188 179 183 182 178 175 175 174 183 181 178 183 191 205 223 227 231 240 256 282 296 308 304 306 300 300 291 274 290 302 294 283 284 291 295
221 216 217 207 206 205 205 196 184 175 178 174 175 179 183 178 181 179 175 178 188 199 204 213 233 267 286 289 290 276 244 257 277 292 270 270 294 315 302 260 262 282 288